Location: Atherton
(17.2661°S, 145.4859°E)
Time: 22:35:56
(UTC+10:00)

Transit 2A - Pass Details

Date: 22 June 2025
Orbit: 598 x 948 km, 66.7° (Epoch: 19 July)

Event Time Altitude Azimuth Distance (km) Brightness Sun altitude
Rises 11:26:32 0° 300° (WNW) 3,427 9.5 47.2°
Reaches altitude 10° 11:29:51 10° 280° (W) 2,555 8.8 47.5°
Maximum altitude 11:33:37 17° 241° (WSW) 2,145 8.2 47.7°
Drops below altitude 10° 11:37:32 10° 202° (SSW) 2,659 8.5 48.0°
Sets 11:41:08 0° 182° (S) 3,629 9.1 48.2°
